Other Surface Observations
Issued by NWS Upton, NY

Current Version | Previous Version | Text Only | Print | Product List | Glossary Off
Versions: 1 2 3 4 5 6 7 8 9 10 11 12 13 14 15 16 17 18 19 20 21 22 23 24 25 26 27 28 29 30 31 32 33 34 35 36 37 38 39 40 41 42 43 44 45 46 47 48 49 50

000
SXUS51 KOKX 241457
OSOOKX
New York City Metropolitan Area Weather Roundup
National Weather Service New York NY
1100 AM EDT TUE APR 24 2018

CITY           SKY/WX    TMP DP  RH WIND       PRES   REMARKS
Central Park   FAIR      62  35  36 E5        30.41F
LaGuardia Arpt PTSUNNY   61  33  35 SE14      30.39F
Kennedy Intl   PTSUNNY   58  44  60 SE15      30.41F
Newark Liberty PTSUNNY   60  39  45 E8        30.39F
Teterboro Arpt FAIR      60  33  36 SE9       30.38F
Bronx Bot Gard   N/A     59  34  38 CALM      30.40F
Bronx Lehman C   N/A     59  34  38 SE9         N/A
Queens College   N/A     59  36  41 SE10        N/A
Breezy Point     N/A     52 N/A N/A SE6         N/A
Brooklyn Coll    N/A     55  41  58 SE14        N/A
Staten Island    N/A     57  39  51 SE8         N/A

>>>>>>>>>>>>>>>>>>>>>>>>>>>>>>>>> KEY <<<<<<<<<<<<<<<<<<<<<<<<<<<<<<<
> SKY/WX - Sky Condition/Present    : R : WCI - Wind Chill Index    <
>          Weather                  : E : VSB - Visibility in Miles <
> TMP    - Temperature in Deg F     : M : HX  - Heat Index          <
> DP     - Dew Point Temperature    : A : TC  - Temperature in      <
> RH     - Relative Humidity        : R :       Celsius             <
> WIND   - Direction/Speed (mph)    : K : VRB - Variable Wind Dir   <
> PRES   - Pressure (in Hg)         : S :                           <
>>>>>>>>>>>>>>>>>>>>>>>>>>>>>>>>> KEY <<<<<<<<<<<<<<<<<<<<<<<<<<<<<<<



USA.gov is the U.S. government's official web portal to all federal, state and local government web resources and services.